Regional Weather Roundup
Issued by NWS Newport/Morehead, NC

Current Version | Previous Version | Graphics & Text | Print | Product List | Glossary Off
Versions: 1 2 3 4 5 6 7 8 9 10 11 12 13 14 15 16 17 18 19 20 21 22 23 24 25 26 27 28 29 30 31 32 33 34 35 36 37 38 39 40 41 42 43 44 45 46 47 48 49 50

000
ASUS42 KMHX 230913
RWRMHX
WEATHER ROUNDUP FOR EASTERN NORTH CAROLINA
NATIONAL WEATHER SERVICE NEWPORT/MOREHEAD CITY NC
500 AM EDT MON OCT 23 2017

NOTE: "FAIR" INDICATES FEW OR NO CLOUDS BELOW 12,000 FEET
WITH NO SIGNIFICANT WEATHER AND/OR OBSTRUCTIONS TO VISIBILITY

NCZ015>017-031-032-045>047-102-103-231000-
NORTH COAST

CITY           SKY/WX    TMP DP  RH WIND       PRES   REMARKS
EDENTON        CLOUDY    60  59  97 CALM      30.25R FOG
ELIZABETH CITY FOG       63  63 100 CALM      30.25R VSB 1/4
KITTY HAWK     PTSUNNY   67  65  94 CALM      30.22S
MANTEO         MOCLDY   N/A N/A N/A SE5       30.24S

$$

NCZ045>047-081-094-103-104-231000-
CENTRAL COAST

CITY           SKY/WX    TMP DP  RH WIND       PRES   REMARKS
FRISCO         PTCLDY    73  66  78 SE8       30.22F

$$

NCZ095-097-098-100-101-231000-
SOUTHERN COAST

CITY           SKY/WX    TMP DP  RH WIND       PRES   REMARKS
BEAUFORT       CLEAR     68  63  84 SE5       30.21S
CEDAR ISLAND   NOT AVBL
JACKSONVILLE   PTCLDY    62  62 100 CALM      30.19F
PINEY ISLAND     N/A    N/A N/A N/A CALM      30.21S
WILMINGTON     CLOUDY    74  65  73 SE8       30.18F


$$

NCZ011>013-027>030-043-044-078>080-089-090>093-098-231000-
COASTAL PLAIN

CITY           SKY/WX    TMP DP  RH WIND       PRES   REMARKS
AHOSKIE        FOG       56  56 100 CALM      30.24S VSB 1/2
CLINTON        CLOUDY    65  64  96 CALM      30.19F
ELIZABETHTOWN  NOT AVBL
GOLDSBORO      MOCLDY    59  58  95 E3        30.19S FOG
GREENVILLE     FOG       55  55 100 CALM      30.23F VSB 1/4
HAVELOCK       CLEAR     62  62 100 CALM      30.22S
KENANSVILLE    CLOUDY    59  59 100 CALM      30.20F FOG
KINSTON        FOG       58  58  99 NE3       30.21F VSB 1
NEW BERN       FOG       58  58 100 CALM      30.22F VSB 1/2
RICHLANDS      PTCLDY    60  60 100 NE3       30.20F
ROCKY MOUNT    PTCLDY    56  56 100 CALM      30.22F FOG
WASHINGTON     PTCLDY    58  58  97 CALM      30.23F
WHITEVILLE     CLOUDY    69  68  96 E3        30.17F

$$

AMZ130-135-150-152-154-156-158-170-250-252-270-ANZ085-086-088-633-658-670-231000-
MARINE OBSERVATIONS

STATION/POSITION TIME  TEMP    WIND        PRES    WAVE   SWELL
                       AIR SEA DIR/SP/G            HT/PER HT/PER
                 (UTC) (F)     (DEG/KT/KT) (MB)    (FT/S) (FT/S)
CHESAPEAKE LIGHT NOT AVBL
64 E VA BEACH    0850   71 69  150/  4/  6 1024.9    3/10   2/10
DUCK             0842   70 70  120/  6/  6 1023.5
2 E DUCK         0900      70                N/A     2/ 8
OREGON INLET     0842   70 72  120/  3/  5 1023.5
13E OREGON INLT  0848      73                N/A     3/ 8   2/ 8
HATTERAS CG      0842   75 73  140/  7/  9 1023.1
DIAMOND BUOY     0850   77 81  140/ 14/ 19 1023.0    3/ 9   2/ 9
CAPE LOOKOUT     0900   74     150/ 11/ 12 1022.6
BEAUFORT LAB     0842   73 72  160/  6/  8 1022.9
30 SE NEW RVR IN 0808   76     150/ 14/ 19 1022.4
30 SE NEW RVR IN NOT AVBL
27 SE WRIGHTSVLE 0808   76 76  150/ 14/ 19 1022.1
5 SE WRIGHTSVLE  0808   76 74  140/ 14/ 19 1022.1
225 S CAPE HAT   0850   76 80  110/ 12/ 14 1022.5    4/ 9   3/ 9
41 SE CHARLESTON 0900   79 79  150/ 19/ 25 1019.4

$$




USA.gov is the U.S. government's official web portal to all federal, state and local government web resources and services.